Weather History for Sacramento / Mc Clellan, CA

Change the Weather History Date:

Saturday, May 3, 2014

  Actual Average (KMHR) Record (KMHR)
Temperature  
Mean Temperature 65 °F -  
Max Temperature 75 °F 74 °F 136 °F (2007)
Min Temperature 55 °F 45 °F 39 °F (2007)
Growing Degree Days 15 (Base 50)    
Moisture  
Dew Point 47 °F    
Average Humidity 60    
Maximum Humidity 82    
Minimum Humidity 31    
Precipitation  
Precipitation 0.00 in - - ()
Sea Level Pressure  
Sea Level Pressure 29.97 in    
Wind  
Wind Speed 11 mph (SSE)    
Max Wind Speed 18 mph    
Max Gust Speed 25 mph    
Visibility 10 miles    
Events      
Averages and records for this station are not official NWS values.
T = Trace of Precipitation, MM = Missing Value Source: NWS Daily Summary

Daily Weather History Graph

Daily Weather History Graph

Search for Another Location

Airport:

Trip Planner

Search our weather history database for the weather conditions in past years. The results will help you decide how hot, cold, wet, or windy it might be!

Date:

Astronomy

May. 03, 2014 Rise Set
Actual Time 6:05 AM PDT 7:59 PM PDT
Civil Twilight 5:36 AM PDT 8:28 PM PDT
Nautical Twilight 5:01 AM PDT 9:03 PM PDT
Astronomical Twilight 4:24 AM PDT 9:41 PM PDT
Moon 9:40 AM PDT (5/3) No Moon Set
Length of Visible Light 14h 51m
Length of Day
13h 54m
Waxing Crescent, 20% of the Moon is Illuminated
May 3
Waxing Crescent
May 6
First Quarter
May 14
Full
May 21
Last Quarter
May 28
New

Hourly Weather History & Observations

Time (PDT) Temp. Dew Point Humidity Pressure Visibility Wind Dir Wind Speed Gust Speed Precip Events Conditions
12:15 AM 59.0 °F 48.2 °F 67% 30.01 in 10.0 mi SE 10.4 mph - N/A   Clear
12:35 AM 59.0 °F 50.0 °F 72% 30.01 in 10.0 mi SSE 9.2 mph - N/A   Clear
12:55 AM 59.0 °F 50.0 °F 72% 30.00 in 10.0 mi SSE 10.4 mph - N/A   Clear
1:15 AM 59.0 °F 50.0 °F 72% 30.00 in 10.0 mi SSE 9.2 mph - N/A   Clear
1:35 AM 57.2 °F 50.0 °F 77% 30.00 in 10.0 mi SE 10.4 mph - N/A   Clear
1:55 AM 57.2 °F 50.0 °F 77% 30.00 in 10.0 mi SE 8.1 mph - N/A   Clear
2:15 AM 57.2 °F 50.0 °F 77% 30.00 in 10.0 mi SE 8.1 mph - N/A   Clear
2:35 AM 57.2 °F 50.0 °F 77% 30.00 in 10.0 mi SE 8.1 mph - N/A   Clear
2:55 AM 57.2 °F 50.0 °F 77% 30.00 in 10.0 mi SE 8.1 mph - N/A   Clear
3:15 AM 55.4 °F 50.0 °F 82% 30.00 in 10.0 mi SE 6.9 mph - N/A   Clear
3:35 AM 55.4 °F 50.0 °F 82% 30.00 in 10.0 mi SE 9.2 mph - N/A   Clear
3:55 AM 55.4 °F 50.0 °F 82% 30.00 in 10.0 mi SE 9.2 mph - N/A   Clear
4:15 AM 55.4 °F 50.0 °F 82% 30.00 in 10.0 mi SE 6.9 mph - N/A   Clear
4:35 AM 55.4 °F 50.0 °F 82% 30.00 in 10.0 mi SE 5.8 mph - N/A   Clear
4:55 AM 55.4 °F 50.0 °F 82% 30.00 in 10.0 mi SE 8.1 mph - N/A   Clear
5:15 AM 55.4 °F 50.0 °F 82% 29.99 in 10.0 mi SE 8.1 mph - N/A   Clear
5:35 AM 55.4 °F 50.0 °F 82% 29.99 in 10.0 mi SE 8.1 mph - N/A   Clear
5:55 AM 55.4 °F 50.0 °F 82% 29.99 in 10.0 mi SE 9.2 mph - N/A   Clear
6:15 AM 55.4 °F 50.0 °F 82% 29.99 in 10.0 mi SSE 8.1 mph - N/A   Clear
6:35 AM 55.4 °F 50.0 °F 82% 29.99 in 10.0 mi SE 8.1 mph - N/A   Clear
6:55 AM 55.4 °F 50.0 °F 82% 29.99 in 10.0 mi SSE 10.4 mph - N/A   Clear
7:15 AM 57.2 °F 50.0 °F 77% 29.99 in 10.0 mi SSE 10.4 mph - N/A   Clear
7:35 AM 57.2 °F 50.0 °F 77% 29.99 in 10.0 mi SSE 10.4 mph - N/A   Clear
7:55 AM 59.0 °F 50.0 °F 72% 29.99 in 10.0 mi SSE 10.4 mph 16.1 mph N/A   Clear
8:15 AM 59.0 °F 50.0 °F 72% 29.99 in 10.0 mi South 12.7 mph - N/A   Clear
8:35 AM 60.8 °F 48.2 °F 63% 29.99 in 10.0 mi SSE 12.7 mph 17.3 mph N/A   Clear
8:55 AM 60.8 °F 48.2 °F 63% 29.99 in 10.0 mi SSE 13.8 mph - N/A   Clear
9:15 AM 62.6 °F 48.2 °F 59% 30.00 in 10.0 mi South 11.5 mph - N/A   Clear
9:35 AM 62.6 °F 48.2 °F 59% 30.00 in 10.0 mi South 11.5 mph 17.3 mph N/A   Clear
9:55 AM 64.4 °F 48.2 °F 56% 29.99 in 10.0 mi SSE 12.7 mph - N/A   Clear
10:15 AM 64.4 °F 48.2 °F 56% 29.99 in 10.0 mi South 11.5 mph - N/A   Clear
10:35 AM 66.2 °F 48.2 °F 52% 29.99 in 10.0 mi SSE 11.5 mph - N/A   Clear
10:55 AM 66.2 °F 46.4 °F 49% 29.98 in 10.0 mi South 13.8 mph 19.6 mph N/A   Clear
11:15 AM 68.0 °F 46.4 °F 46% 29.98 in 10.0 mi South 15.0 mph - N/A   Clear
11:35 AM 68.0 °F 46.4 °F 46% 29.98 in 10.0 mi South 13.8 mph 21.9 mph N/A   Clear
11:55 AM 68.0 °F 46.4 °F 46% 29.98 in 10.0 mi South 12.7 mph - N/A   Clear
12:15 PM 69.8 °F 46.4 °F 43% 29.98 in 10.0 mi SSW 15.0 mph 20.7 mph N/A   Clear
12:35 PM 71.6 °F 46.4 °F 41% 29.97 in 10.0 mi South 11.5 mph 20.7 mph N/A   Clear
12:55 PM 71.6 °F 46.4 °F 41% 29.97 in 10.0 mi South 15.0 mph - N/A   Clear
1:15 PM 71.6 °F 46.4 °F 41% 29.96 in 10.0 mi SSW 16.1 mph 24.2 mph N/A   Clear
1:35 PM 73.4 °F 46.4 °F 38% 29.96 in 10.0 mi South 15.0 mph 20.7 mph N/A   Clear
1:55 PM 73.4 °F 46.4 °F 38% 29.95 in 10.0 mi South 17.3 mph 25.3 mph N/A   Clear
2:15 PM 75.2 °F 44.6 °F 34% 29.95 in 10.0 mi South 12.7 mph 18.4 mph N/A   Clear
2:35 PM 73.4 °F 44.6 °F 36% 29.95 in 10.0 mi South 15.0 mph 20.7 mph N/A   Clear
2:55 PM 75.2 °F 44.6 °F 34% 29.94 in 10.0 mi South 15.0 mph 20.7 mph N/A   Clear
3:15 PM 75.2 °F 44.6 °F 34% 29.94 in 10.0 mi South 17.3 mph 24.2 mph N/A   Clear
3:35 PM 75.2 °F 42.8 °F 31% 29.93 in 10.0 mi South 15.0 mph 20.7 mph N/A   Clear
3:55 PM 75.2 °F 44.6 °F 34% 29.93 in 10.0 mi SSW 17.3 mph 21.9 mph N/A   Clear
4:15 PM 75.2 °F 42.8 °F 31% 29.92 in 10.0 mi South 17.3 mph 21.9 mph N/A   Clear
4:35 PM 73.4 °F 42.8 °F 33% 29.92 in 10.0 mi South 18.4 mph - N/A   Clear
4:55 PM 73.4 °F 44.6 °F 36% 29.92 in 10.0 mi South 16.1 mph - N/A   Clear
5:15 PM 73.4 °F 44.6 °F 36% 29.92 in 10.0 mi South 18.4 mph 21.9 mph N/A   Clear
5:35 PM 71.6 °F 44.6 °F 38% 29.92 in 10.0 mi SSW 16.1 mph 25.3 mph N/A   Clear
5:55 PM 71.6 °F 44.6 °F 38% 29.92 in 10.0 mi SSW 13.8 mph 24.2 mph N/A   Clear
6:15 PM 71.6 °F 44.6 °F 38% 29.92 in 10.0 mi South 15.0 mph 19.6 mph N/A   Clear
6:35 PM 68.0 °F 42.8 °F 40% 29.92 in 10.0 mi SSW 18.4 mph 21.9 mph N/A   Clear
6:55 PM 66.2 °F 42.8 °F 43% 29.91 in 10.0 mi South 15.0 mph 24.2 mph N/A   Clear
7:15 PM 64.4 °F 42.8 °F 45% 29.92 in 10.0 mi South 18.4 mph 23.0 mph N/A   Clear
7:35 PM 64.4 °F 44.6 °F 49% 29.92 in 10.0 mi South 13.8 mph 21.9 mph N/A   Clear
7:55 PM 62.6 °F 44.6 °F 52% 29.93 in 10.0 mi South 15.0 mph 19.6 mph N/A   Clear
8:15 PM 62.6 °F 44.6 °F 52% 29.93 in 10.0 mi South 9.2 mph 16.1 mph N/A   Clear
8:35 PM 60.8 °F 44.6 °F 55% 29.93 in 10.0 mi South 15.0 mph 19.6 mph N/A   Clear
8:55 PM 59.0 °F 44.6 °F 59% 29.94 in 10.0 mi South 13.8 mph 19.6 mph N/A   Clear
9:15 PM 59.0 °F 46.4 °F 63% 29.95 in 10.0 mi South 11.5 mph 19.6 mph N/A   Clear
9:35 PM 57.2 °F 46.4 °F 67% 29.96 in 10.0 mi South 12.7 mph - N/A   Clear
9:55 PM 57.2 °F 48.2 °F 72% 29.96 in 10.0 mi South 12.7 mph 20.7 mph N/A   Clear
10:15 PM 57.2 °F 48.2 °F 72% 29.96 in 10.0 mi South 11.5 mph - N/A   Clear
10:35 PM 57.2 °F 48.2 °F 72% 29.97 in 10.0 mi SSE 11.5 mph - N/A   Clear
10:55 PM 57.2 °F 48.2 °F 72% 29.97 in 10.0 mi SE 9.2 mph - N/A   Clear
11:15 PM 55.4 °F 48.2 °F 77% 29.97 in 10.0 mi SSE 11.5 mph 16.1 mph N/A   Clear
11:35 PM 55.4 °F 48.2 °F 77% 29.97 in 10.0 mi SSE 12.7 mph 19.6 mph N/A   Clear
11:55 PM 55.4 °F 48.2 °F 77% 29.97 in 10.0 mi SSE 11.5 mph - N/A   Clear